This is the latest recevied weather packets stored in our database for station/object KF7IOR. If no packets are shown the sender has not sent any weather packets the latest 10 day(s).
| Time | Temp. | Humidity | Pressure | Rain* | Wind** | Luminosity | Snow |
|---|---|---|---|---|---|---|---|
| 1778048435 | 15.56° C | 79% | 1016.5 hPa | 0 mm | - | 0 W/m² | - |
| 1778046936 | 15° C | 81% | 1016.4 hPa | 0 mm | - | 0 W/m² | - |
| 1778044547 | 14.44° C | 82% | 1016.2 hPa | 0 mm | - | 0 W/m² | - |
| 1778043656 | 13.89° C | 83% | 1016.2 hPa | 0 mm | - | 0 W/m² | - |
| 1778043036 | 13.89° C | 84% | 1016.1 hPa | 0 mm | - | 0 W/m² | - |
| 1778042746 | 13.33° C | 84% | 1016.1 hPa | 0 mm | - | 0 W/m² | - |
| 1778040634 | 13.89° C | 82% | 1015.6 hPa | 0 mm | - | 0 W/m² | - |
| 1778040047 | 13.89° C | 81% | 1015.5 hPa | 0 mm | - | 0 W/m² | - |
| 1778039138 | 14.44° C | 78% | 1015.3 hPa | 0 mm | - | 0 W/m² | - |
| 1778037344 | 16.11° C | 74% | 1015.1 hPa | 0 mm | - | 7 W/m² | - |
| 1778036442 | 16.67° C | 72% | 1014.9 hPa | 0 mm | - | 18 W/m² | - |
| 1778033747 | 17.78° C | 66% | 1014.7 hPa | 0 mm | - | 54 W/m² | - |
| 1778032235 | 17.78° C | 66% | 1014.6 hPa | 0 mm | - | 93 W/m² | - |
| 1778030170 | 18.33° C | 66% | 1014.8 hPa | 0 mm | - | 251 W/m² | - |
| 1778022637 | 17.78° C | 68% | 1015.5 hPa | 0 mm | - | 207 W/m² | - |
| 1778021734 | 17.22° C | 69% | 1015.5 hPa | 0 mm | - | 232 W/m² | - |
| 1778019935 | 17.22° C | 70% | 1015.7 hPa | 0 mm | - | 190 W/m² | - |
| 1778019635 | 17.22° C | 71% | 1015.8 hPa | 0 mm | - | 179 W/m² | - |
| 1778019036 | 17.22° C | 71% | 1015.8 hPa | 0 mm | - | 174 W/m² | - |
| 1778018734 | 17.22° C | 70% | 1015.8 hPa | 0 mm | - | 171 W/m² | - |
| 1778018135 | 17.22° C | 70% | 1015.8 hPa | 0 mm | - | 195 W/m² | - |
| 1778017837 | 17.22° C | 69% | 1015.9 hPa | 0 mm | - | 213 W/m² | - |
| 1778016935 | 17.22° C | 70% | 1015.9 hPa | 0 mm | - | 260 W/m² | - |
| 1778016335 | 17.22° C | 70% | 1015.9 hPa | 0 mm | - | 257 W/m² | - |
| 1778015743 | 17.22° C | 72% | 1015.9 hPa | 0 mm | - | 294 W/m² | - |
* Rain latest hour (hover to see other rain measurements)
** Current wind speed in m/s (hover to see current wind gust speed)